KD9JOU-13 Weather Reports


time (UTC)temp
C
wind
direction
speed
KPH
gust
KPH
rain 1hr
cm
rain 24hr
cm
rain mn
cm
humidity
%
barometer
mb
20260905224331 37 221 0.0 3.2 0.00 0.00 0.00 41 1011.3
20260905223831 37 220 1.6 3.2 0.00 0.00 0.00 40 1011.2
20260905223331 37 221 1.6 4.8 0.00 0.00 0.00 40 1011.2
20260905222831 37 324 3.2 4.8 0.00 0.00 0.00 41 1011.3
20260905222331 37 305 3.2 3.2 0.00 0.00 0.00 41 1011.3
20260905221831 37 237 1.6 3.2 0.00 0.00 0.00 41 1011.3
20260905221331 37 318 3.2 4.8 0.00 0.00 0.00 40 1011.2
20260905220831 37 270 3.2 4.8 0.00 0.00 0.00 41 1011.1
20260905220331 37 250 1.6 3.2 0.00 0.00 0.00 40 1011.1
20260905215831 37 327 1.6 3.2 0.00 0.00 0.00 41 1011.2
20260905215331 37 328 3.2 3.2 0.00 0.00 0.00 41 1011.2
20260905214831 37 288 3.2 4.8 0.00 0.00 0.00 41 1011.3
20260905214331 37 349 3.2 4.8 0.00 0.00 0.00 42 1011.3
20260905213831 37 341 3.2 8.0 0.00 0.00 0.00 41 1011.3
20260905213331 37 109 1.6 3.2 0.00 0.00 0.00 43 1011.2
20260905212831 36 231 3.2 3.2 0.00 0.00 0.00 43 1011.3
20260905212331 36 312 1.6 3.2 0.00 0.00 0.00 43 1011.3
20260905211831 36 265 1.6 3.2 0.00 0.00 0.00 43 1011.4
20260905211331 36 324 1.6 3.2 0.00 0.00 0.00 44 1011.5
20260905210831 36 213 0.0 3.2 0.00 0.00 0.00 44 1011.5
20260905210331 36 203 0.0 0.0 0.00 0.00 0.00 45 1011.6
20260905205831 36 304 0.0 3.2 0.00 0.00 0.00 45 1011.6
20260905205331 36 217 0.0 3.2 0.00 0.00 0.00 44 1011.6
20260905204831 37 353 0.0 3.2 0.00 0.00 0.00 43 1011.7
20260905204331 37 351 1.6 4.8 0.00 0.00 0.00 43 1011.7
20260905203831 37 340 3.2 4.8 0.00 0.00 0.00 42 1011.7
20260905203330 37 346 3.2 4.8 0.00 0.00 0.00 41 1011.8
20260905202831 37 340 4.8 6.4 0.00 0.00 0.00 41 1011.8
20260905202331 37 335 3.2 6.4 0.00 0.00 0.00 42 1011.8
20260905201831 37 217 3.2 4.8 0.00 0.00 0.00 42 1011.8
20260905201331 37 332 3.2 6.4 0.00 0.00 0.00 41 1011.9
20260905200831 36 321 3.2 4.8 0.00 0.00 0.00 42 1011.9
20260905200331 36 192 1.6 3.2 0.00 0.00 0.00 43 1012.0
20260905195832 36 290 0.0 1.6 0.00 0.00 0.00 43 1012.1
20260905195331 36 186 0.0 1.6 0.00 0.00 0.00 45 1012.1
20260905194831 36 353 1.6 3.2 0.00 0.00 0.00 44 1012.3
20260905194331 36 261 0.0 3.2 0.00 0.00 0.00 45 1012.3
20260905193831 36 348 3.2 4.8 0.00 0.00 0.00 43 1012.4
20260905193330 36 351 3.2 4.8 0.00 0.00 0.00 43 1012.4
20260905192831 36 353 3.2 4.8 0.00 0.00 0.00 43 1012.5
20260905192331 36 353 3.2 4.8 0.00 0.00 0.00 45 1012.5
20260905191831 36 211 1.6 3.2 0.00 0.00 0.00 43 1012.5
20260905191331 36 360 0.0 0.0 0.00 0.00 0.00 43 1012.6
20260905190831 36 244 1.6 3.2 0.00 0.00 0.00 43 1012.6
20260905190331 36 326 3.2 4.8 0.00 0.00 0.00 43 1012.7
20260905185832 36 342 3.2 3.2 0.00 0.00 0.00 43 1012.7
20260905185331 36 140 0.0 3.2 0.00 0.00 0.00 45 1012.7
20260905184830 36 276 0.0 3.2 0.00 0.00 0.00 44 1012.8
20260905184331 36 219 1.6 1.6 0.00 0.00 0.00 44 1012.9
20260905183831 36 334 3.2 4.8 0.00 0.00 0.00 45 1012.9
20260905183331 36 251 1.6 4.8 0.00 0.00 0.00 44 1012.9
20260905182830 36 179 1.6 3.2 0.00 0.00 0.00 44 1013.0
20260905182331 36 349 3.2 4.8 0.00 0.00 0.00 45 1013.0
20260905181831 36 173 3.2 4.8 0.00 0.00 0.00 45 1013.0
20260905181332 36 238 1.6 3.2 0.00 0.00 0.00 45 1013.0
20260905180831 36 343 3.2 6.4 0.00 0.00 0.00 44 1013.1
20260905180331 36 172 3.2 4.8 0.00 0.00 0.00 44 1013.2
20260905175831 36 338 3.2 4.8 0.00 0.00 0.00 43 1013.2
20260905175331 36 328 1.6 3.2 0.00 0.00 0.00 44 1013.3
20260905174831 36 231 0.0 3.2 0.00 0.00 0.00 45 1013.4
20260905174330 36 246 1.6 3.2 0.00 0.00 0.00 45 1013.4
20260905173831 36 291 1.6 3.2 0.00 0.00 0.00 44 1013.3
20260905173331 36 219 1.6 3.2 0.00 0.00 0.00 45 1013.4
20260905172831 36 337 3.2 4.8 0.00 0.00 0.00 45 1013.4
20260905172331 36 233 3.2 4.8 0.00 0.00 0.00 45 1013.4
20260905171831 36 354 3.2 4.8 0.00 0.00 0.00 46 1013.5
20260905171332 36 335 3.2 3.2 0.00 0.00 0.00 46 1013.7
20260905170831 36 243 0.0 3.2 0.00 0.00 0.00 45 1013.8
20260905170331 36 183 1.6 3.2 0.00 0.00 0.00 45 1013.8
20260905165832 36 333 3.2 6.4 0.00 0.00 0.00 45 1014.1
20260905165331 36 342 3.2 4.8 0.00 0.00 0.00 47 1013.9
20260905164831 36 325 4.8 6.4 0.00 0.00 0.00 47 1013.9
20260905164331 36 298 3.2 4.8 0.00 0.00 0.00 47 1014.1
20260905163831 35 152 3.2 3.2 0.00 0.00 0.00 48 1014.1
20260905163330 35 243 3.2 4.8 0.00 0.00 0.00 48 1014.1
20260905162831 35 325 3.2 6.4 0.00 0.00 0.00 48 1014.1
20260905162331 35 277 1.6 3.2 0.00 0.00 0.00 48 1014.2
20260905161831 35 233 1.6 3.2 0.00 0.00 0.00 48 1014.2
20260905161331 35 234 3.2 4.8 0.00 0.00 0.00 48 1014.2
20260905160831 35 333 4.8 9.7 0.00 0.00 0.00 48 1014.3
20260905160331 35 339 3.2 4.8 0.00 0.00 0.00 49 1014.3
20260905155831 35 188 1.6 3.2 0.00 0.00 0.00 51 1014.3
20260905155331 35 246 1.6 3.2 0.00 0.00 0.00 51 1014.3
20260905154831 35 211 1.6 4.8 0.00 0.00 0.00 53 1014.3
20260905154331 35 223 1.6 3.2 0.00 0.00 0.00 53 1014.3
20260905153831 35 247 3.2 4.8 0.00 0.00 0.00 53 1014.3
20260905153331 35 284 3.2 4.8 0.00 0.00 0.00 52 1014.4
20260905152832 35 192 3.2 4.8 0.00 0.00 0.00 52 1014.4
20260905152331 35 255 0.0 1.6 0.00 0.00 0.00 52 1014.4
20260905151831 35 225 0.0 3.2 0.00 0.00 0.00 52 1014.4
20260905151331 35 193 0.0 3.2 0.00 0.00 0.00 52 1014.4
20260905150831 35 333 3.2 4.8 0.00 0.00 0.00 53 1014.4
20260905150331 34 305 1.6 3.2 0.00 0.00 0.00 55 1014.4
20260905145831 34 187 0.0 3.2 0.00 0.00 0.00 55 1014.4
20260905145331 33 314 0.0 0.0 0.00 0.00 0.00 55 1014.5
20260905144831 33 360 0.0 0.0 0.00 0.00 0.00 56 1014.6
20260905144331 33 360 0.0 0.0 0.00 0.00 0.00 58 1014.6
20260905143831 32 360 0.0 0.0 0.00 0.00 0.00 61 1014.7
20260905143331 32 360 0.0 0.0 0.00 0.00 0.00 63 1014.8
20260905142831 31 360 0.0 0.0 0.00 0.00 0.00 66 1014.8
20260905142331 31 360 0.0 0.0 0.00 0.00 0.00 69 1014.8
20260905141831 30 360 0.0 0.0 0.00 0.00 0.00 74 1014.9
20260905141331 30 360 0.0 0.0 0.00 0.00 0.00 75 1015.0
20260905140831 29 360 0.0 0.0 0.00 0.00 0.00 76 1015.0
20260905140331 29 360 0.0 0.0 0.00 0.00 0.00 77 1015.0
20260905135831 28 360 0.0 0.0 0.00 0.00 0.00 78 1015.0
20260905135331 28 360 0.0 0.0 0.00 0.00 0.00 79 1015.1
20260905134830 28 360 0.0 0.0 0.00 0.00 0.00 79 1015.1
20260905134331 27 360 0.0 0.0 0.00 0.00 0.00 81 1015.1
20260905133831 27 360 0.0 0.0 0.00 0.00 0.00 82 1015.2
20260905133331 27 360 0.0 0.0 0.00 0.00 0.00 83 1015.1
20260905132831 26 360 0.0 0.0 0.00 0.00 0.00 87 1015.2
20260905132331 26 360 0.0 0.0 0.00 0.00 0.00 88 1015.2
20260905131830 26 360 0.0 0.0 0.00 0.00 0.00 88 1015.2
20260905131331 26 360 0.0 0.0 0.00 0.00 0.00 89 1015.2
20260905130831 26 360 0.0 0.0 0.00 0.00 0.00 90 1015.2
20260905130331 25 360 0.0 0.0 0.00 0.00 0.00 90 1015.2
20260905125831 25 360 0.0 0.0 0.00 0.00 0.00 91 1015.3
20260905125331 25 360 0.0 0.0 0.00 0.00 0.00 92 1015.3
20260905124831 25 360 0.0 0.0 0.00 0.00 0.00 92 1015.3
20260905124331 24 360 0.0 0.0 0.00 0.00 0.00 93 1015.3
20260905123831 24 360 0.0 0.0 0.00 0.00 0.00 93 1015.2
20260905123331 24 360 0.0 0.0 0.00 0.00 0.00 94 1015.2
20260905122831 24 360 0.0 0.0 0.00 0.00 0.00 94 1015.1
20260905122331 23 360 0.0 0.0 0.00 0.00 0.00 94 1015.2
20260905121831 23 360 0.0 0.0 0.00 0.00 0.00 94 1015.1
20260905121330 23 360 0.0 0.0 0.00 0.00 0.00 95 1015.1
20260905120831 23 360 0.0 0.0 0.00 0.00 0.00 95 1015.0
20260905120331 23 360 0.0 0.0 0.00 0.00 0.00 95 1015.0
20260905115831 23 360 0.0 0.0 0.00 0.00 0.00 95 1014.9
20260905115331 23 360 0.0 0.0 0.00 0.00 0.00 95 1014.9
20260905114831 23 360 0.0 0.0 0.00 0.00 0.00 95 1014.9
20260905114331 23 360 0.0 0.0 0.00 0.00 0.00 95 1014.8
20260905113831 23 360 0.0 0.0 0.00 0.00 0.00 95 1014.8
20260905113331 23 360 0.0 0.0 0.00 0.00 0.00 95 1014.8
20260905112831 23 360 0.0 0.0 0.00 0.00 0.00 95 1014.8
20260905112330 23 360 0.0 0.0 0.00 0.00 0.00 95 1014.7
20260905111830 23 360 0.0 0.0 0.00 0.00 0.00 95 1014.7
20260905111331 23 360 0.0 0.0 0.00 0.00 0.00 94 1014.6
20260905110831 23 360 0.0 0.0 0.00 0.00 0.00 94 1014.5
20260905110331 23 360 0.0 0.0 0.00 0.00 0.00 94 1014.4
20260905105831 23 360 0.0 0.0 0.00 0.00 0.00 94 1014.4
20260905105331 23 360 0.0 0.0 0.00 0.00 0.00 94 1014.4
20260905104831 23 360 0.0 0.0 0.00 0.00 0.00 93 1014.4
20260905104330 23 360 0.0 0.0 0.00 0.00 0.00 93 1014.4
20260905103831 23 360 0.0 0.0 0.00 0.00 0.00 93 1014.4
20260905103331 23 360 0.0 0.0 0.00 0.00 0.00 93 1014.4
20260905102831 23 360 0.0 0.0 0.00 0.00 0.00 93 1014.5
20260905102331 23 360 0.0 0.0 0.00 0.00 0.00 93 1014.4
20260905101831 23 360 0.0 0.0 0.00 0.00 0.00 93 1014.3
20260905101331 23 360 0.0 0.0 0.00 0.00 0.00 93 1014.3
20260905100831 23 360 0.0 0.0 0.00 0.00 0.00 93 1014.3
20260905100330 23 360 0.0 0.0 0.00 0.00 0.00 92 1014.3
20260905095831 23 360 0.0 0.0 0.00 0.00 0.00 92 1014.3
20260905095331 23 360 0.0 0.0 0.00 0.00 0.00 92 1014.2
20260905094831 23 360 0.0 0.0 0.00 0.00 0.00 92 1014.3
20260905094331 24 360 0.0 0.0 0.00 0.00 0.00 92 1014.2
20260905093831 24 360 0.0 0.0 0.00 0.00 0.00 92 1014.2
20260905093330 24 360 0.0 0.0 0.00 0.00 0.00 92 1014.2
20260905092831 24 360 0.0 0.0 0.00 0.00 0.00 91 1014.2
20260905092331 24 360 0.0 0.0 0.00 0.00 0.00 91 1014.1
20260905091831 24 360 0.0 0.0 0.00 0.00 0.00 91 1014.1
20260905091331 24 360 0.0 0.0 0.00 0.00 0.00 91 1014.1
20260905090831 24 360 0.0 0.0 0.00 0.00 0.00 91 1013.9
20260905090331 24 360 0.0 0.0 0.00 0.00 0.00 91 1014.1
20260905085831 24 360 0.0 0.0 0.00 0.00 0.00 91 1014.1
20260905085330 24 360 0.0 0.0 0.00 0.00 0.00 91 1014.1
20260905084831 24 360 0.0 0.0 0.00 0.00 0.00 90 1014.1
20260905084331 24 360 0.0 0.0 0.00 0.00 0.00 90 1014.1
20260905083832 24 360 0.0 0.0 0.00 0.00 0.00 90 1014.2
20260905083331 24 360 0.0 0.0 0.00 0.00 0.00 90 1014.2
20260905082832 25 360 0.0 0.0 0.00 0.00 0.00 90 1014.1
20260905082331 25 360 0.0 0.0 0.00 0.00 0.00 90 1014.1
20260905081831 25 360 0.0 0.0 0.00 0.00 0.00 90 1014.1
20260905081331 25 360 0.0 0.0 0.00 0.00 0.00 89 1014.2
20260905080831 25 360 0.0 0.0 0.00 0.00 0.00 89 1014.2
20260905080331 25 360 0.0 0.0 0.00 0.00 0.00 89 1014.2
20260905075831 25 360 0.0 0.0 0.00 0.00 0.00 89 1014.3
20260905075331 25 360 0.0 0.0 0.00 0.00 0.00 89 1014.3
20260905074831 25 360 0.0 0.0 0.00 0.00 0.00 89 1014.3
20260905074331 25 360 0.0 0.0 0.00 0.00 0.00 89 1014.3
20260905073830 25 360 0.0 0.0 0.00 0.00 0.00 89 1014.3
20260905073331 25 360 0.0 0.0 0.00 0.00 0.00 89 1014.3
20260905072832 25 360 0.0 0.0 0.00 0.00 0.00 89 1014.3
20260905072330 25 360 0.0 0.0 0.00 0.00 0.00 89 1014.2
20260905071831 25 360 0.0 0.0 0.00 0.00 0.00 89 1014.3
20260905071331 25 360 0.0 0.0 0.00 0.00 0.00 89 1014.3
20260905070831 25 360 0.0 0.0 0.00 0.00 0.00 89 1014.3
20260905070331 25 360 0.0 0.0 0.00 0.00 0.00 88 1014.3
20260905065831 25 360 0.0 0.0 0.00 0.00 0.00 88 1014.3
20260905065331 25 360 0.0 0.0 0.00 0.00 0.00 87 1014.3
20260905064831 25 360 0.0 0.0 0.00 0.00 0.00 87 1014.3
20260905064331 25 360 0.0 0.0 0.00 0.00 0.00 87 1014.2
20260905063837 25 360 0.0 0.0 0.00 0.00 0.00 86 1014.3
20260905063331 25 360 0.0 0.0 0.00 0.00 0.00 86 1014.3
20260905062831 25 360 0.0 0.0 0.00 0.00 0.00 86 1014.4
20260905062331 25 360 0.0 0.0 0.00 0.00 0.00 86 1014.5
20260905061832 26 360 0.0 0.0 0.00 0.00 0.00 86 1014.5
20260905061331 26 360 0.0 0.0 0.00 0.00 0.00 86 1014.5
20260905060831 26 360 0.0 0.0 0.00 0.00 0.00 85 1014.5
20260905060331 26 360 0.0 0.0 0.00 0.00 0.00 85 1014.5
20260905055831 26 360 0.0 0.0 0.00 0.00 0.00 85 1014.5
20260905055331 26 360 0.0 0.0 0.00 0.00 0.00 84 1014.5
20260905054831 26 360 0.0 0.0 0.00 0.00 0.00 84 1014.5
20260905054331 26 360 0.0 0.0 0.00 0.00 0.00 85 1014.5
20260905053831 26 360 0.0 0.0 0.00 0.00 0.00 84 1014.6
20260905053331 26 360 0.0 0.0 0.00 0.00 0.00 84 1014.6
20260905052831 26 360 0.0 0.0 0.00 0.00 0.00 84 1014.6
20260905052331 26 360 0.0 0.0 0.00 0.00 0.00 83 1014.6
20260905051831 26 360 0.0 0.0 0.00 0.00 0.00 83 1014.6
20260905051331 26 360 0.0 0.0 0.00 0.00 0.00 83 1014.6
20260905050830 26 360 0.0 0.0 0.00 0.00 0.00 83 1014.6
20260905050331 26 360 0.0 0.0 0.00 0.00 0.00 83 1014.6
20260905045831 26 360 0.0 0.0 0.00 0.00 0.00 82 1014.6
20260905045331 26 360 0.0 0.0 0.00 0.00 0.00 82 1014.6
20260905044831 26 360 0.0 0.0 0.00 0.00 0.00 81 1014.6
20260905044331 27 360 0.0 0.0 0.00 0.00 0.00 81 1014.5
20260905043831 27 360 0.0 0.0 0.00 0.00 0.00 80 1014.5
20260905043330 27 360 0.0 0.0 0.00 0.00 0.00 80 1014.6
20260905042831 27 360 0.0 0.0 0.00 0.00 0.00 80 1014.5
20260905042331 27 360 0.0 0.0 0.00 0.00 0.00 80 1014.6
20260905041831 27 360 0.0 0.0 0.00 0.00 0.00 79 1014.6
20260905041331 27 360 0.0 0.0 0.00 0.00 0.00 79 1014.6
20260905040831 27 360 0.0 0.0 0.00 0.00 0.00 78 1014.6
20260905040330 27 360 0.0 0.0 0.00 0.00 0.00 78 1014.6
20260905035831 27 360 0.0 0.0 0.00 0.00 0.00 77 1014.6
20260905035331 27 360 0.0 0.0 0.00 0.00 0.00 77 1014.6
20260905034831 27 360 0.0 0.0 0.00 0.00 0.00 77 1014.6
20260905034331 28 360 0.0 0.0 0.00 0.00 0.00 76 1014.7
20260905033831 28 360 0.0 0.0 0.00 0.00 0.00 76 1014.7
20260905033331 28 360 0.0 0.0 0.00 0.00 0.00 76 1014.7
20260905032831 28 360 0.0 0.0 0.00 0.00 0.00 75 1014.7
20260905032331 28 360 0.0 0.0 0.00 0.00 0.00 76 1014.7
20260905031831 28 360 0.0 0.0 0.00 0.00 0.00 75 1014.5
20260905031331 28 360 0.0 0.0 0.00 0.00 0.00 75 1014.7
20260905030831 28 360 0.0 0.0 0.00 0.00 0.00 76 1014.7
20260905030331 28 360 0.0 0.0 0.00 0.00 0.00 75 1014.7
20260905025831 28 360 0.0 0.0 0.00 0.00 0.00 75 1014.7
20260905025331 28 360 0.0 0.0 0.00 0.00 0.00 75 1014.7
20260905024830 28 360 0.0 0.0 0.00 0.00 0.00 76 1014.7
20260905024331 28 360 0.0 0.0 0.00 0.00 0.00 76 1014.6
20260905023831 28 360 0.0 0.0 0.00 0.00 0.00 75 1014.5
20260905023331 28 360 0.0 0.0 0.00 0.00 0.00 75 1014.4
20260905022832 28 360 0.0 0.0 0.00 0.00 0.00 74 1014.4
20260905022331 28 360 0.0 0.0 0.00 0.00 0.00 74 1014.5
20260905021831 29 360 0.0 0.0 0.00 0.00 0.00 73 1014.5
20260905021331 29 360 0.0 0.0 0.00 0.00 0.00 73 1014.4
20260905020831 29 360 0.0 0.0 0.00 0.00 0.00 73 1014.4
20260905020331 29 360 0.0 0.0 0.00 0.00 0.00 72 1014.4
20260905015831 29 360 0.0 0.0 0.00 0.00 0.00 73 1014.4
20260905015331 29 360 0.0 0.0 0.00 0.00 0.00 72 1014.3
20260905014830 29 151 0.0 1.6 0.00 0.00 0.00 71 1014.3
20260905014331 29 143 0.0 1.6 0.00 0.00 0.00 71 1014.3
20260905013831 30 360 0.0 0.0 0.00 0.00 0.00 71 1014.2
20260905013331 30 150 0.0 1.6 0.00 0.00 0.00 71 1014.1
20260905012831 30 152 0.0 1.6 0.00 0.00 0.00 71 1014.1
20260905012331 30 360 0.0 0.0 0.00 0.00 0.00 70 1014.1
20260905011831 30 360 0.0 0.0 0.00 0.00 0.00 69 1014.1
20260905011332 30 360 0.0 0.0 0.00 0.00 0.00 69 1013.9
20260905010831 30 360 0.0 0.0 0.00 0.00 0.00 69 1013.9
20260905010331 30 136 0.0 1.6 0.00 0.00 0.00 68 1013.8
20260905005830 30 360 0.0 0.0 0.00 0.00 0.00 68 1013.7
20260905005331 31 360 0.0 0.0 0.00 0.00 0.00 67 1013.7
20260905004832 31 360 0.0 0.0 0.00 0.00 0.00 66 1013.6
20260905004331 31 360 0.0 0.0 0.00 0.00 0.00 65 1013.5
20260905003831 31 360 0.0 0.0 0.00 0.00 0.00 64 1013.5
20260905003331 32 360 0.0 0.0 0.00 0.00 0.00 63 1013.5
20260905002831 32 119 0.0 1.6 0.00 0.00 0.00 63 1013.5
20260905002332 32 360 0.0 0.0 0.00 0.00 0.00 62 1013.4
20260905001831 32 360 0.0 0.0 0.00 0.00 0.00 61 1013.4
20260905001331 33 360 0.0 0.0 0.00 0.00 0.00 60 1013.4
20260905000832 33 360 0.0 0.0 0.00 0.00 0.00 60 1013.4
20260905000333 34 360 0.0 0.0 0.00 0.00 0.00 58 1013.4
20260904235831 34 360 0.0 0.0 0.00 0.00 0.00 56 1013.4
20260904235331 35 360 0.0 0.0 0.00 0.00 0.00 55 1013.4
20260904234831 35 360 0.0 0.0 0.00 0.00 0.00 54 1013.4
20260904234331 35 155 0.0 1.6 0.00 0.00 0.00 52 1013.3
20260904233830 35 180 0.0 3.2 0.00 0.00 0.00 51 1013.3
20260904233331 35 195 1.6 3.2 0.00 0.00 0.00 51 1013.3
20260904232831 36 192 1.6 3.2 0.00 0.00 0.00 51 1013.2
20260904232331 36 186 3.2 3.2 0.00 0.00 0.00 50 1013.2
20260904231831 36 360 0.0 0.0 0.00 0.00 0.00 50 1013.2
20260904231331 36 140 1.6 3.2 0.00 0.00 0.00 49 1013.2
20260904230831 36 185 3.2 4.8 0.00 0.00 0.00 48 1013.2
20260904230331 36 138 1.6 3.2 0.00 0.00 0.00 49 1013.1
20260904225831 36 200 4.8 4.8 0.00 0.00 0.00 46 1013.2
20260904225331 36 189 3.2 3.2 0.00 0.00 0.00 45 1013.2
20260904224831 36 192 1.6 3.2 0.00 0.00 0.00 45 1013.2